This is the latest recevied weather packets stored in our database for station/object WY7EM. If no packets are shown the sender has not sent any weather packets the latest 1 day(s).
| Time | Temp. | Humidity | Pressure | Rain* | Wind** | Luminosity | Snow |
|---|---|---|---|---|---|---|---|
| 1836274582 | 21.67° C | 54% | 1018.5 hPa | 0 mm | 0 m/s | 0 W/m² | - |
| 1836274436 | 21.67° C | 55% | 1018.5 hPa | 0 mm | 0 m/s | 0 W/m² | - |
| 1836274281 | 22.22° C | 54% | 1018.5 hPa | 0 mm | 0 m/s | 0 W/m² | - |
| 1836274134 | 21.67° C | 54% | 1018.3 hPa | 0 mm | 0 m/s | 0 W/m² | - |
| 1836273980 | 22.22° C | 53% | 1018.3 hPa | 0 mm | 0.45 m/s, 48° | 0 W/m² | - |
| 1778040174 | 18.33° C | 24% | 1008.9 hPa | 0 mm | 2.68 m/s, 265° | 0 W/m² | - |
| 1778039870 | 18.33° C | 24% | 1008.7 hPa | 0 mm | 2.24 m/s, 334° | 0 W/m² | - |
| 1778039567 | 18.33° C | 24% | 1008.5 hPa | 0 mm | 3.13 m/s, 264° | 0 W/m² | - |
| 1778039264 | 18.33° C | 24% | 1008.7 hPa | 0 mm | 3.58 m/s, 350° | 0 W/m² | - |
| 1778038961 | 18.33° C | 24% | 1008.5 hPa | 0 mm | 5.36 m/s, 240° | 0 W/m² | - |
| 1778038658 | 18.33° C | 24% | 1008.3 hPa | 0 mm | 4.92 m/s, 230° | 0 W/m² | - |
| 1778038356 | 18.33° C | 24% | 1007.9 hPa | 0 mm | 4.47 m/s, 244° | 0 W/m² | - |
| 1778038052 | 18.33° C | 23% | 1007.9 hPa | 0 mm | 5.81 m/s, 218° | 0 W/m² | - |
| 1778037749 | 18.33° C | 23% | 1008 hPa | 0 mm | 4.47 m/s, 266° | 0 W/m² | - |
| 1778037446 | 18.89° C | 23% | 1007.6 hPa | 0 mm | 2.68 m/s, 15° | 0 W/m² | - |
| 1778037143 | 18.89° C | 23% | 1007.7 hPa | 0 mm | 3.58 m/s, 248° | 0 W/m² | - |
| 1778036841 | 18.89° C | 23% | 1007.4 hPa | 0 mm | 3.13 m/s, 209° | 0 W/m² | - |
| 1778036539 | 18.89° C | 23% | 1007.3 hPa | 0 mm | 1.79 m/s, 48° | 0 W/m² | - |
| 1778036235 | 18.89° C | 23% | 1007.3 hPa | 0 mm | 3.58 m/s, 218° | 0 W/m² | - |
| 1778035932 | 18.89° C | 23% | 1007.3 hPa | 0 mm | 2.68 m/s, 243° | 0 W/m² | - |
| 1778035629 | 18.89° C | 23% | 1007.2 hPa | 0 mm | 2.68 m/s, 305° | 0 W/m² | - |
| 1778035325 | 18.89° C | 23% | 1006.8 hPa | 0 mm | 4.02 m/s, 282° | 0 W/m² | - |
| 1778035021 | 19.44° C | 23% | 1006.9 hPa | 0 mm | 3.13 m/s, 215° | 0 W/m² | - |
| 1778034719 | 19.44° C | 23% | 1006.8 hPa | 0 mm | 3.13 m/s, 265° | 0 W/m² | - |
| 1778034416 | 19.44° C | 23% | 1006.8 hPa | 0 mm | 4.47 m/s, 259° | 1 W/m² | - |
* Rain latest hour (hover to see other rain measurements)
** Current wind speed in m/s (hover to see current wind gust speed)